date,time,SUV Intensity [MED/Hr],UV Index,Daily total [MED],Since Last [MED]
19/02/2023,00:03:08,0.000,0.0,0.0,0.0
19/02/2023,00:04:08,0.001,0.0,0.0,0.0
19/02/2023,00:05:07,-0.000,0.0,0.0,0.0
19/02/2023,00:06:08,-0.000,0.0,0.0,0.0
19/02/2023,00:07:08,0.000,0.0,0.0,0.0
19/02/2023,00:08:08,0.000,0.0,0.0,0.0
19/02/2023,00:09:08,0.001,0.0,0.0,0.0
19/02/2023,00:10:08,-0.001,0.0,0.0,0.0
19/02/2023,00:11:08,-0.001,0.0,0.0,0.0
19/02/2023,00:12:08,-0.000,0.0,0.0,0.0
19/02/2023,00:13:08,0.000,0.0,0.0,0.0
19/02/2023,00:14:08,0.000,0.0,0.0,0.0
19/02/2023,00:15:08,-0.000,0.0,0.0,0.0
19/02/2023,00:16:08,-0.000,0.0,0.0,0.0
19/02/2023,00:17:08,-0.001,0.0,0.0,0.0
19/02/2023,00:18:08,0.000,0.0,0.0,0.0
19/02/2023,00:19:08,0.001,0.0,0.0,0.0
19/02/2023,00:20:08,-0.000,0.0,0.0,0.0
19/02/2023,00:21:08,-0.000,0.0,0.0,0.0
19/02/2023,00:22:08,0.000,0.0,0.0,0.0
19/02/2023,00:23:08,0.000,0.0,0.0,0.0
19/02/2023,00:24:08,0.000,0.0,0.0,0.0
19/02/2023,00:25:07,0.001,0.0,0.0,0.0
19/02/2023,00:26:09,0.001,0.0,0.0,0.0
19/02/2023,00:27:08,0.000,0.0,0.0,0.0
19/02/2023,00:28:08,0.000,0.0,0.0,0.0
19/02/2023,00:29:08,0.000,0.0,0.0,0.0
19/02/2023,00:30:08,-0.001,0.0,0.0,0.0
19/02/2023,00:31:08,-0.001,0.0,0.0,0.0
19/02/2023,00:32:08,0.000,0.0,0.0,0.0
19/02/2023,00:33:07,0.000,0.0,0.0,0.0
19/02/2023,00:34:08,0.000,0.0,0.0,0.0
19/02/2023,00:35:08,0.001,0.0,0.0,0.0
19/02/2023,00:36:08,0.001,0.0,0.0,0.0
19/02/2023,00:37:08,-0.000,0.0,0.0,0.0
19/02/2023,00:38:08,0.000,0.0,0.0,0.0
19/02/2023,00:39:08,0.000,0.0,0.0,0.0
19/02/2023,00:40:08,-0.000,0.0,0.0,0.0
19/02/2023,00:41:08,0.001,0.0,0.0,0.0
19/02/2023,00:42:08,0.000,0.0,0.0,0.0
19/02/2023,00:43:08,0.000,0.0,0.0,0.0
19/02/2023,00:44:08,0.000,0.0,0.0,0.0
19/02/2023,00:45:08,0.000,0.0,0.0,0.0
19/02/2023,00:46:08,0.001,0.0,0.0,0.0
19/02/2023,00:47:08,0.000,0.0,0.0,0.0
19/02/2023,00:48:08,-0.000,0.0,0.0,0.0
19/02/2023,00:49:07,0.000,0.0,0.0,0.0
19/02/2023,00:50:08,0.001,0.0,0.0,0.0
19/02/2023,00:51:09,0.001,0.0,0.0,0.0
19/02/2023,00:52:09,0.001,0.0,0.0,0.0
19/02/2023,00:53:08,0.000,0.0,0.0,0.0
19/02/2023,00:54:08,-0.001,0.0,0.0,0.0
19/02/2023,00:55:08,0.000,0.0,0.0,0.0
19/02/2023,00:56:08,-0.000,0.0,0.0,0.0
19/02/2023,00:57:08,-0.000,0.0,0.0,0.0
19/02/2023,00:58:08,-0.000,0.0,0.0,0.0
19/02/2023,00:59:08,0.000,0.0,0.0,0.0
19/02/2023,01:00:08,0.000,0.0,0.0,0.0
19/02/2023,01:01:07,0.001,0.0,0.0,0.0
19/02/2023,01:02:08,0.001,0.0,0.0,0.0
19/02/2023,01:03:08,0.001,0.0,0.0,0.0
19/02/2023,01:04:08,0.000,0.0,0.0,0.0
19/02/2023,01:05:07,-0.000,0.0,0.0,0.0
19/02/2023,01:06:08,-0.000,0.0,0.0,0.0
19/02/2023,01:07:08,0.000,0.0,0.0,0.0
19/02/2023,01:08:08,0.000,0.0,0.0,0.0
19/02/2023,01:09:08,0.000,0.0,0.0,0.0
19/02/2023,01:10:08,0.000,0.0,0.0,0.0
19/02/2023,01:11:08,0.001,0.0,0.0,0.0
19/02/2023,01:12:08,0.001,0.0,0.0,0.0
19/02/2023,01:13:08,0.000,0.0,0.0,0.0
19/02/2023,01:14:08,0.000,0.0,0.0,0.0
19/02/2023,01:15:08,0.001,0.0,0.0,0.0
19/02/2023,01:16:08,0.000,0.0,0.0,0.0
19/02/2023,01:17:08,0.000,0.0,0.0,0.0
19/02/2023,01:18:08,0.000,0.0,0.0,0.0
19/02/2023,01:19:08,0.000,0.0,0.0,0.0
19/02/2023,01:20:08,0.000,0.0,0.0,0.0
19/02/2023,01:21:08,0.000,0.0,0.0,0.0
19/02/2023,01:22:08,0.000,0.0,0.0,0.0
19/02/2023,01:23:08,0.000,0.0,0.0,0.0
19/02/2023,01:24:08,0.000,0.0,0.0,0.0
19/02/2023,01:25:08,0.000,0.0,0.0,0.0
19/02/2023,01:26:08,0.000,0.0,0.0,0.0
19/02/2023,01:27:08,0.000,0.0,0.0,0.0
19/02/2023,01:28:08,0.000,0.0,0.0,0.0
19/02/2023,01:29:08,-0.000,0.0,0.0,0.0
19/02/2023,01:30:08,0.000,0.0,0.0,0.0
19/02/2023,01:31:08,0.000,0.0,0.0,0.0
19/02/2023,01:32:08,0.001,0.0,0.0,0.0
19/02/2023,01:33:08,0.000,0.0,0.0,0.0
19/02/2023,01:34:08,0.000,0.0,0.0,0.0
19/02/2023,01:35:08,0.000,0.0,0.0,0.0
19/02/2023,01:36:08,0.001,0.0,0.0,0.0
19/02/2023,01:37:08,0.000,0.0,0.0,0.0
19/02/2023,01:38:08,0.000,0.0,0.0,0.0
19/02/2023,01:39:08,-0.001,0.0,0.0,0.0
19/02/2023,01:40:08,0.000,0.0,0.0,0.0
19/02/2023,01:41:08,0.000,0.0,0.0,0.0
19/02/2023,01:42:08,-0.000,0.0,0.0,0.0
19/02/2023,01:43:08,0.001,0.0,0.0,0.0
19/02/2023,01:44:08,0.001,0.0,0.0,0.0
19/02/2023,01:45:08,0.000,0.0,0.0,0.0
19/02/2023,01:46:08,0.000,0.0,0.0,0.0
19/02/2023,01:47:08,0.001,0.0,0.0,0.0
19/02/2023,01:48:09,0.000,0.0,0.0,0.0
19/02/2023,01:49:08,0.000,0.0,0.0,0.0
19/02/2023,01:50:08,0.000,0.0,0.0,0.0
19/02/2023,01:51:08,0.000,0.0,0.0,0.0
19/02/2023,01:52:08,0.000,0.0,0.0,0.0
19/02/2023,01:53:08,0.000,0.0,0.0,0.0
19/02/2023,01:54:08,0.000,0.0,0.0,0.0
19/02/2023,01:55:08,0.001,0.0,0.0,0.0
19/02/2023,01:56:08,0.001,0.0,0.0,0.0
19/02/2023,01:57:08,-0.000,0.0,0.0,0.0
19/02/2023,01:58:09,-0.000,0.0,0.0,0.0
19/02/2023,01:59:08,0.000,0.0,0.0,0.0
19/02/2023,02:00:08,0.000,0.0,0.0,0.0
19/02/2023,02:01:08,0.000,0.0,0.0,0.0
19/02/2023,02:02:08,0.000,0.0,0.0,0.0
19/02/2023,02:03:08,0.000,0.0,0.0,0.0
19/02/2023,02:04:08,0.001,0.0,0.0,0.0
19/02/2023,02:05:08,0.000,0.0,0.0,0.0
19/02/2023,02:06:08,0.000,0.0,0.0,0.0
19/02/2023,02:07:08,0.000,0.0,0.0,0.0
19/02/2023,02:08:08,0.001,0.0,0.0,0.0
19/02/2023,02:09:09,0.001,0.0,0.0,0.0
19/02/2023,02:10:09,-0.001,0.0,0.0,0.0
19/02/2023,02:11:08,0.001,0.0,0.0,0.0
19/02/2023,02:12:08,0.000,0.0,0.0,0.0
19/02/2023,02:13:08,0.001,0.0,0.0,0.0
19/02/2023,02:14:08,-0.000,0.0,0.0,0.0
19/02/2023,02:15:08,0.001,0.0,0.0,0.0
19/02/2023,02:16:08,0.000,0.0,0.0,0.0
19/02/2023,02:17:08,0.001,0.0,0.0,0.0
19/02/2023,02:18:08,0.000,0.0,0.0,0.0
19/02/2023,02:19:08,0.000,0.0,0.0,0.0
19/02/2023,02:20:09,0.000,0.0,0.0,0.0
19/02/2023,02:21:08,0.000,0.0,0.0,0.0
19/02/2023,02:22:08,0.000,0.0,0.0,0.0
19/02/2023,02:23:08,0.000,0.0,0.0,0.0
19/02/2023,02:24:08,0.000,0.0,0.0,0.0
19/02/2023,02:25:08,0.001,0.0,0.0,0.0
19/02/2023,02:26:09,0.001,0.0,0.0,0.0
19/02/2023,02:27:08,0.000,0.0,0.0,0.0
19/02/2023,02:28:08,0.000,0.0,0.0,0.0
19/02/2023,02:29:08,0.000,0.0,0.0,0.0
19/02/2023,02:30:08,0.000,0.0,0.0,0.0
19/02/2023,02:31:08,-0.001,0.0,0.0,0.0
19/02/2023,02:32:08,0.000,0.0,0.0,0.0
19/02/2023,02:33:08,0.000,0.0,0.0,0.0
19/02/2023,02:34:08,0.000,0.0,0.0,0.0
19/02/2023,02:35:08,0.000,0.0,0.0,0.0
19/02/2023,02:36:08,0.000,0.0,0.0,0.0
19/02/2023,02:37:08,0.000,0.0,0.0,0.0
19/02/2023,02:38:08,0.000,0.0,0.0,0.0
19/02/2023,02:39:08,0.001,0.0,0.0,0.0
19/02/2023,02:40:10,0.000,0.0,0.0,0.0
19/02/2023,02:41:08,0.000,0.0,0.0,0.0
19/02/2023,02:42:08,-0.000,0.0,0.0,0.0
19/02/2023,02:43:09,0.000,0.0,0.0,0.0
19/02/2023,02:44:08,0.000,0.0,0.0,0.0
19/02/2023,02:45:08,0.000,0.0,0.0,0.0
19/02/2023,02:46:08,0.000,0.0,0.0,0.0
19/02/2023,02:47:09,0.000,0.0,0.0,0.0
19/02/2023,02:48:08,0.000,0.0,0.0,0.0
19/02/2023,02:49:08,0.001,0.0,0.0,0.0
19/02/2023,02:50:08,0.000,0.0,0.0,0.0
19/02/2023,02:51:08,0.000,0.0,0.0,0.0
19/02/2023,02:52:08,0.000,0.0,0.0,0.0
19/02/2023,02:53:08,0.000,0.0,0.0,0.0
19/02/2023,02:54:08,-0.001,0.0,0.0,0.0
19/02/2023,02:55:08,0.000,0.0,0.0,0.0
19/02/2023,02:56:08,0.000,0.0,0.0,0.0
19/02/2023,02:57:08,0.001,0.0,0.0,0.0
19/02/2023,02:58:08,0.000,0.0,0.0,0.0
19/02/2023,02:59:09,0.000,0.0,0.0,0.0
19/02/2023,03:00:09,0.000,0.0,0.0,0.0
19/02/2023,03:01:09,0.001,0.0,0.0,0.0
19/02/2023,03:02:08,0.001,0.0,0.0,0.0
19/02/2023,03:03:07,0.001,0.0,0.0,0.0
19/02/2023,03:04:31,0.001,0.0,0.0,0.0
19/02/2023,03:06:09,-0.001,0.0,0.0,0.0
19/02/2023,03:07:09,0.001,0.0,0.0,0.0
19/02/2023,03:08:09,0.001,0.0,0.0,0.0
19/02/2023,03:09:09,0.001,0.0,0.0,0.0
19/02/2023,03:10:08,0.000,0.0,0.0,0.0
19/02/2023,03:11:09,0.001,0.0,0.0,0.0
19/02/2023,03:12:08,0.001,0.0,0.0,0.0
19/02/2023,03:13:08,0.000,0.0,0.0,0.0
19/02/2023,03:14:08,0.001,0.0,0.0,0.0
19/02/2023,03:15:09,0.000,0.0,0.0,0.0
19/02/2023,03:16:08,0.001,0.0,0.0,0.0
19/02/2023,03:17:08,0.001,0.0,0.0,0.0
19/02/2023,03:18:09,0.001,0.0,0.0,0.0
19/02/2023,03:19:10,0.001,0.0,0.0,0.0
19/02/2023,03:20:08,0.001,0.0,0.0,0.0
19/02/2023,03:21:08,0.001,0.0,0.0,0.0
19/02/2023,03:22:09,-0.000,0.0,0.0,0.0
19/02/2023,03:23:09,-0.000,0.0,0.0,0.0
19/02/2023,03:24:09,0.001,0.0,0.0,0.0
19/02/2023,03:25:09,0.000,0.0,0.0,0.0
19/02/2023,03:26:08,0.001,0.0,0.0,0.0
19/02/2023,03:27:08,0.001,0.0,0.0,0.0
19/02/2023,03:28:08,0.001,0.0,0.0,0.0
19/02/2023,03:29:08,0.001,0.0,0.0,0.0
19/02/2023,03:30:08,0.001,0.0,0.0,0.0
19/02/2023,03:31:08,0.001,0.0,0.0,0.0
19/02/2023,03:32:08,0.001,0.0,0.0,0.0
19/02/2023,03:33:09,0.001,0.0,0.0,0.0
19/02/2023,03:34:08,0.001,0.0,0.0,0.0
19/02/2023,03:35:09,0.001,0.0,0.0,0.0
19/02/2023,03:36:08,0.000,0.0,0.0,0.0
19/02/2023,03:37:08,0.001,0.0,0.0,0.0
19/02/2023,03:38:09,0.001,0.0,0.0,0.0
19/02/2023,03:39:08,0.000,0.0,0.0,0.0
19/02/2023,03:40:08,0.001,0.0,0.0,0.0
19/02/2023,03:41:08,0.001,0.0,0.0,0.0
19/02/2023,03:42:08,0.000,0.0,0.0,0.0
19/02/2023,03:43:09,0.000,0.0,0.0,0.0
19/02/2023,03:44:08,0.001,0.0,0.0,0.0
19/02/2023,03:45:09,0.001,0.0,0.0,0.0
19/02/2023,03:46:08,0.001,0.0,0.0,0.0
19/02/2023,03:47:09,0.001,0.0,0.0,0.0
19/02/2023,03:48:08,0.001,0.0,0.0,0.0
19/02/2023,03:49:08,0.001,0.0,0.0,0.0
19/02/2023,03:50:09,0.001,0.0,0.0,0.0
19/02/2023,03:51:08,0.001,0.0,0.0,0.0
19/02/2023,03:52:09,0.001,0.0,0.0,0.0
19/02/2023,03:53:08,0.001,0.0,0.0,0.0
19/02/2023,03:54:09,0.001,0.0,0.0,0.0
19/02/2023,03:55:09,0.000,0.0,0.0,0.0
19/02/2023,03:56:09,0.000,0.0,0.0,0.0
19/02/2023,03:57:08,0.001,0.0,0.0,0.0
19/02/2023,03:58:08,0.001,0.0,0.0,0.0
19/02/2023,03:59:08,0.001,0.0,0.0,0.0
19/02/2023,04:00:08,0.001,0.0,0.0,0.0
19/02/2023,04:01:08,0.001,0.0,0.0,0.0
19/02/2023,04:02:08,0.002,0.0,0.0,0.0
19/02/2023,04:03:09,-0.000,0.0,0.0,0.0
19/02/2023,04:04:08,0.001,0.0,0.0,0.0
19/02/2023,04:05:08,0.001,0.0,0.0,0.0
19/02/2023,04:06:08,0.001,0.0,0.0,0.0
19/02/2023,04:07:08,0.001,0.0,0.0,0.0
19/02/2023,04:08:09,-0.000,0.0,0.0,0.0
19/02/2023,04:09:08,0.001,0.0,0.0,0.0
19/02/2023,04:10:08,0.000,0.0,0.0,0.0
19/02/2023,04:11:09,-0.000,0.0,0.0,0.0
19/02/2023,04:12:08,-0.001,0.0,0.0,0.0
19/02/2023,04:13:09,0.001,0.0,0.0,0.0
19/02/2023,04:14:08,0.001,0.0,0.0,0.0
19/02/2023,04:15:09,0.001,0.0,0.0,0.0
19/02/2023,04:16:08,0.001,0.0,0.0,0.0
19/02/2023,04:17:08,0.000,0.0,0.0,0.0
19/02/2023,04:18:08,-0.000,0.0,0.0,0.0
19/02/2023,04:19:08,0.001,0.0,0.0,0.0
19/02/2023,04:20:08,0.001,0.0,0.0,0.0
19/02/2023,04:21:08,0.000,0.0,0.0,0.0
19/02/2023,04:22:08,0.001,0.0,0.0,0.0
19/02/2023,04:23:08,0.000,0.0,0.0,0.0
19/02/2023,04:24:08,0.001,0.0,0.0,0.0
19/02/2023,04:25:08,0.001,0.0,0.0,0.0
19/02/2023,04:26:08,0.001,0.0,0.0,0.0
19/02/2023,04:27:08,0.001,0.0,0.0,0.0
19/02/2023,04:28:08,0.000,0.0,0.0,0.0
19/02/2023,04:29:08,0.001,0.0,0.0,0.0
19/02/2023,04:30:08,0.001,0.0,0.0,0.0
19/02/2023,04:31:08,0.001,0.0,0.0,0.0
19/02/2023,04:32:08,0.001,0.0,0.0,0.0
19/02/2023,04:33:08,0.001,0.0,0.0,0.0
19/02/2023,04:34:08,0.001,0.0,0.0,0.0
19/02/2023,04:35:08,-0.000,0.0,0.0,0.0
19/02/2023,04:36:08,0.001,0.0,0.0,0.0
19/02/2023,04:37:08,0.001,0.0,0.0,0.0
19/02/2023,04:38:08,0.000,0.0,0.0,0.0
19/02/2023,04:39:08,0.001,0.0,0.0,0.0
19/02/2023,04:40:08,0.000,0.0,0.0,0.0
19/02/2023,04:41:08,0.000,0.0,0.0,0.0
19/02/2023,04:42:08,0.001,0.0,0.0,0.0
19/02/2023,04:43:08,0.000,0.0,0.0,0.0
19/02/2023,04:44:08,0.001,0.0,0.0,0.0
19/02/2023,04:45:08,-0.000,0.0,0.0,0.0
19/02/2023,04:46:08,0.001,0.0,0.0,0.0
19/02/2023,04:47:08,-0.000,0.0,0.0,0.0
19/02/2023,04:48:08,0.000,0.0,0.0,0.0
19/02/2023,04:49:09,0.000,0.0,0.0,0.0
19/02/2023,04:50:09,0.000,0.0,0.0,0.0
19/02/2023,04:51:08,0.000,0.0,0.0,0.0
19/02/2023,04:52:09,0.001,0.0,0.0,0.0
19/02/2023,04:53:08,0.001,0.0,0.0,0.0
19/02/2023,04:54:08,0.000,0.0,0.0,0.0
19/02/2023,04:55:08,0.001,0.0,0.0,0.0
19/02/2023,04:56:09,0.000,0.0,0.0,0.0
19/02/2023,04:57:08,0.000,0.0,0.0,0.0
19/02/2023,04:58:08,0.000,0.0,0.0,0.0
19/02/2023,04:59:09,0.002,0.0,0.0,0.0
19/02/2023,05:00:08,0.001,0.0,0.0,0.0
19/02/2023,05:01:09,-0.000,0.0,0.0,0.0
19/02/2023,05:02:08,0.001,0.0,0.0,0.0
19/02/2023,05:03:09,-0.000,0.0,0.0,0.0
19/02/2023,05:04:08,0.000,0.0,0.0,0.0
19/02/2023,05:05:09,0.001,0.0,0.0,0.0
19/02/2023,05:06:08,0.001,0.0,0.0,0.0
19/02/2023,05:07:08,0.001,0.0,0.0,0.0
19/02/2023,05:08:09,0.000,0.0,0.0,0.0
19/02/2023,05:09:08,0.001,0.0,0.0,0.0
19/02/2023,05:10:08,0.001,0.0,0.0,0.0
19/02/2023,05:11:08,0.001,0.0,0.0,0.0
19/02/2023,05:12:08,-0.000,0.0,0.0,0.0
19/02/2023,05:13:08,0.001,0.0,0.0,0.0
19/02/2023,05:14:09,0.001,0.0,0.0,0.0
19/02/2023,05:15:09,0.001,0.0,0.0,0.0
19/02/2023,05:16:09,-0.000,0.0,0.0,0.0
19/02/2023,05:17:08,0.001,0.0,0.0,0.0
19/02/2023,05:18:08,0.001,0.0,0.0,0.0
19/02/2023,05:19:08,-0.000,0.0,0.0,0.0
19/02/2023,05:20:08,0.001,0.0,0.0,0.0
19/02/2023,05:21:08,0.001,0.0,0.0,0.0
19/02/2023,05:22:08,0.001,0.0,0.0,0.0
19/02/2023,05:23:09,0.001,0.0,0.0,0.0
19/02/2023,05:24:09,0.001,0.0,0.0,0.0
19/02/2023,05:25:09,0.001,0.0,0.0,0.0
19/02/2023,05:26:09,0.001,0.0,0.0,0.0
19/02/2023,05:27:09,0.001,0.0,0.0,0.0
19/02/2023,05:28:08,0.000,0.0,0.0,0.0
19/02/2023,05:29:09,0.001,0.0,0.0,0.0
19/02/2023,05:30:09,0.000,0.0,0.0,0.0
19/02/2023,05:31:08,0.001,0.0,0.0,0.0
19/02/2023,05:32:09,0.001,0.0,0.0,0.0
19/02/2023,05:33:09,0.001,0.0,0.0,0.0
19/02/2023,05:34:09,0.001,0.0,0.0,0.0
19/02/2023,05:35:08,0.001,0.0,0.0,0.0
19/02/2023,05:36:08,-0.000,0.0,0.0,0.0
19/02/2023,05:37:08,0.001,0.0,0.0,0.0
19/02/2023,05:38:08,0.001,0.0,0.0,0.0
19/02/2023,05:39:08,0.001,0.0,0.0,0.0
19/02/2023,05:40:09,0.001,0.0,0.0,0.0
19/02/2023,05:41:09,0.001,0.0,0.0,0.0
19/02/2023,05:42:09,0.001,0.0,0.0,0.0
19/02/2023,05:43:09,0.001,0.0,0.0,0.0
19/02/2023,05:44:09,0.001,0.0,0.0,0.0
19/02/2023,05:45:09,0.001,0.0,0.0,0.0
19/02/2023,05:46:08,0.001,0.0,0.0,0.0
19/02/2023,05:47:08,0.001,0.0,0.0,0.0
19/02/2023,05:48:08,0.002,0.0,0.0,0.0
19/02/2023,05:49:08,0.001,0.0,0.0,0.0
19/02/2023,05:50:08,0.001,0.0,0.0,0.0
19/02/2023,05:51:08,0.000,0.0,0.0,0.0
19/02/2023,05:52:09,0.001,0.0,0.0,0.0
19/02/2023,05:53:09,0.002,0.0,0.0,0.0
19/02/2023,05:54:09,0.001,0.0,0.0,0.0
19/02/2023,05:55:09,0.001,0.0,0.0,0.0
19/02/2023,05:56:09,0.000,0.0,0.0,0.0
19/02/2023,05:57:09,0.001,0.0,0.0,0.0
19/02/2023,05:58:08,0.001,0.0,0.0,0.0
19/02/2023,05:59:09,0.001,0.0,0.0,0.0
19/02/2023,06:00:09,0.001,0.0,0.0,0.0
19/02/2023,06:01:09,0.001,0.0,0.0,0.0
19/02/2023,06:02:08,0.001,0.0,0.0,0.0
19/02/2023,06:03:08,0.001,0.0,0.0,0.0
19/02/2023,06:04:09,0.001,0.0,0.0,0.0
19/02/2023,06:05:08,0.001,0.0,0.0,0.0
19/02/2023,06:06:09,0.001,0.0,0.0,0.0
19/02/2023,06:07:08,0.001,0.0,0.0,0.0
19/02/2023,06:08:08,0.001,0.0,0.0,0.0
19/02/2023,06:09:08,0.002,0.0,0.0,0.0
19/02/2023,06:10:08,0.001,0.0,0.0,0.0
19/02/2023,06:11:08,0.001,0.0,0.0,0.0
19/02/2023,06:12:10,0.001,0.0,0.0,0.0
19/02/2023,06:13:09,0.002,0.0,0.0,0.0
19/02/2023,06:14:09,0.001,0.0,0.0,0.0
19/02/2023,06:15:09,0.001,0.0,0.0,0.0
19/02/2023,06:16:09,0.001,0.0,0.0,0.0
19/02/2023,06:17:09,0.000,0.0,0.0,0.0
19/02/2023,06:18:09,0.001,0.0,0.0,0.0
19/02/2023,06:19:08,0.001,0.0,0.0,0.0
19/02/2023,06:20:08,0.001,0.0,0.0,0.0
19/02/2023,06:21:08,0.001,0.0,0.0,0.0
19/02/2023,06:22:08,0.001,0.0,0.0,0.0
19/02/2023,06:23:08,0.000,0.0,0.0,0.0
19/02/2023,06:24:08,0.001,0.0,0.0,0.0
19/02/2023,06:25:08,0.001,0.0,0.0,0.0
19/02/2023,06:26:08,0.001,0.0,0.0,0.0
19/02/2023,06:27:09,0.001,0.0,0.0,0.0
19/02/2023,06:28:09,0.001,0.0,0.0,0.0
19/02/2023,06:29:09,0.001,0.0,0.0,0.0
19/02/2023,06:30:09,0.001,0.0,0.0,0.0
19/02/2023,06:31:09,0.001,0.0,0.0,0.0
19/02/2023,06:32:09,0.001,0.0,0.0,0.0
19/02/2023,06:33:09,0.001,0.0,0.0,0.0
19/02/2023,06:34:08,0.001,0.0,0.0,0.0
19/02/2023,06:35:09,0.002,0.0,0.0,0.0
19/02/2023,06:36:08,0.001,0.0,0.0,0.0
19/02/2023,06:37:09,0.001,0.0,0.0,0.0
19/02/2023,06:38:08,0.001,0.0,0.0,0.0
19/02/2023,06:39:09,0.001,0.0,0.0,0.0
19/02/2023,06:40:09,0.001,0.0,0.0,0.0
19/02/2023,06:41:09,0.001,0.0,0.0,0.0
19/02/2023,06:42:09,0.001,0.0,0.0,0.0
19/02/2023,06:43:09,0.001,0.0,0.0,0.0
19/02/2023,06:44:09,0.001,0.0,0.0,0.0
19/02/2023,06:45:09,0.001,0.0,0.0,0.0
19/02/2023,06:46:09,0.001,0.0,0.0,0.0
19/02/2023,06:47:09,0.001,0.0,0.0,0.0
19/02/2023,06:48:09,0.001,0.0,0.0,0.0
19/02/2023,06:49:09,0.001,0.0,0.0,0.0
19/02/2023,06:50:08,0.001,0.0,0.0,0.0
19/02/2023,06:51:09,0.001,0.0,0.0,0.0
19/02/2023,06:52:09,0.001,0.0,0.0,0.0
19/02/2023,06:53:09,0.001,0.0,0.0,0.0
19/02/2023,06:54:08,0.001,0.0,0.0,0.0
19/02/2023,06:55:09,0.000,0.0,0.0,0.0
19/02/2023,06:56:09,0.001,0.0,0.0,0.0
19/02/2023,06:57:09,0.001,0.0,0.0,0.0
19/02/2023,06:58:09,0.001,0.0,0.0,0.0
19/02/2023,06:59:09,0.001,0.0,0.0,0.0
19/02/2023,07:00:08,0.001,0.0,0.0,0.0
19/02/2023,07:01:09,0.001,0.0,0.0,0.0
19/02/2023,07:02:08,0.001,0.0,0.0,0.0
19/02/2023,07:03:08,0.001,0.0,0.0,0.0
19/02/2023,07:04:09,0.001,0.0,0.0,0.0
19/02/2023,07:05:09,0.002,0.0,0.0,0.0
19/02/2023,07:06:09,0.002,0.0,0.0,0.0
19/02/2023,07:07:09,0.001,0.0,0.0,0.0
19/02/2023,07:08:09,0.002,0.0,0.0,0.0
19/02/2023,07:09:09,0.003,0.0,0.0,0.0
19/02/2023,07:10:09,0.002,0.0,0.0,0.0
19/02/2023,07:11:08,0.002,0.0,0.0,0.0
19/02/2023,07:12:09,0.002,0.0,0.0,0.0
19/02/2023,07:13:08,0.002,0.0,0.0,0.0
19/02/2023,07:14:08,0.002,0.0,0.0,0.0
19/02/2023,07:15:09,0.002,0.0,0.0,0.0
19/02/2023,07:16:09,0.003,0.0,0.0,0.0
19/02/2023,07:17:09,0.003,0.0,0.0,0.0
19/02/2023,07:18:09,0.003,0.0,0.0,0.0
19/02/2023,07:19:08,0.003,0.0,0.0,0.0
19/02/2023,07:20:09,0.001,0.0,0.0,0.0
19/02/2023,07:21:09,0.003,0.0,0.0,0.0
19/02/2023,07:22:09,0.003,0.0,0.0,0.0
19/02/2023,07:23:09,0.003,0.0,0.0,0.0
19/02/2023,07:24:09,0.004,0.0,0.0,0.0
19/02/2023,07:25:09,0.003,0.0,0.0,0.0
19/02/2023,07:26:09,0.004,0.0,0.0,0.0
19/02/2023,07:27:09,0.004,0.0,0.0,0.0
19/02/2023,07:28:09,0.004,0.0,0.0,0.0
19/02/2023,07:29:09,0.004,0.0,0.0,0.0
19/02/2023,07:30:08,0.005,0.0,0.0,0.0
19/02/2023,07:31:08,0.005,0.0,0.0,0.0
19/02/2023,07:32:08,0.004,0.0,0.0,0.0
19/02/2023,07:33:08,0.004,0.0,0.0,0.0
19/02/2023,07:34:09,0.005,0.0,0.0,0.0
19/02/2023,07:35:08,0.006,0.0,0.0,0.0
19/02/2023,07:36:09,0.006,0.0,0.0,0.0
19/02/2023,07:37:09,0.005,0.0,0.0,0.0
19/02/2023,07:38:09,0.004,0.0,0.0,0.0
19/02/2023,07:39:09,0.005,0.0,0.0,0.0
19/02/2023,07:40:09,0.005,0.0,0.0,0.0
19/02/2023,07:41:09,0.006,0.0,0.0,0.0
19/02/2023,07:42:09,0.006,0.0,0.0,0.0
19/02/2023,07:43:09,0.006,0.0,0.0,0.0
19/02/2023,07:44:08,0.006,0.0,0.0,0.0
19/02/2023,07:45:08,0.007,0.0,0.0,0.0
19/02/2023,07:46:08,0.007,0.0,0.0,0.0
19/02/2023,07:47:08,0.008,0.0,0.001,0.001
19/02/2023,07:48:08,0.008,0.0,0.001,0.0
19/02/2023,07:49:08,0.008,0.0,0.001,0.0
19/02/2023,07:50:09,0.009,0.0,0.001,0.0
19/02/2023,07:51:09,0.009,0.0,0.001,0.0
19/02/2023,07:52:09,0.009,0.0,0.001,0.0
19/02/2023,07:53:09,0.010,0.0,0.001,0.0
19/02/2023,07:54:08,0.010,0.0,0.002,0.001
19/02/2023,07:55:09,0.010,0.0,0.002,0.0
19/02/2023,07:56:08,0.011,0.0,0.002,0.0
19/02/2023,07:57:09,0.012,0.0,0.002,0.0
19/02/2023,07:58:09,0.013,0.0,0.002,0.0
19/02/2023,07:59:08,0.014,0.0,0.002,0.0
19/02/2023,08:00:09,0.015,0.0,0.003,0.001
19/02/2023,08:01:09,0.017,0.0,0.003,0.0
19/02/2023,08:02:09,0.017,0.0,0.003,0.0
19/02/2023,08:03:09,0.018,0.0,0.004,0.001
19/02/2023,08:04:09,0.019,0.0,0.004,0.0
19/02/2023,08:05:09,0.019,0.0,0.004,0.0
19/02/2023,08:06:09,0.020,0.0,0.005,0.001
19/02/2023,08:07:09,0.019,0.0,0.005,0.0
19/02/2023,08:08:09,0.020,0.0,0.005,0.0
19/02/2023,08:09:09,0.020,0.0,0.006,0.001
19/02/2023,08:10:09,0.022,0.0,0.006,0.0
19/02/2023,08:11:09,0.022,0.0,0.006,0.0
19/02/2023,08:12:09,0.020,0.0,0.007,0.001
19/02/2023,08:13:08,0.020,0.0,0.007,0.0
19/02/2023,08:14:09,0.022,0.0,0.007,0.0
19/02/2023,08:15:09,0.024,0.0,0.008,0.001
19/02/2023,08:16:09,0.026,0.0,0.008,0.0
19/02/2023,08:17:08,0.028,0.0,0.008,0.0
19/02/2023,08:18:09,0.030,0.0,0.009,0.001
19/02/2023,08:19:09,0.031,0.0,0.009,0.0
19/02/2023,08:20:09,0.033,0.0,0.01,0.001
19/02/2023,08:21:09,0.036,0.0,0.011,0.001
19/02/2023,08:22:09,0.038,0.0,0.011,0.0
19/02/2023,08:23:09,0.037,0.0,0.012,0.001
19/02/2023,08:24:09,0.036,0.0,0.012,0.0
19/02/2023,08:25:09,0.037,0.0,0.013,0.001
19/02/2023,08:26:09,0.035,0.0,0.014,0.001
19/02/2023,08:27:08,0.035,0.0,0.014,0.0
19/02/2023,08:28:09,0.032,0.0,0.015,0.001
19/02/2023,08:29:08,0.028,0.0,0.015,0.0
19/02/2023,08:30:10,0.027,0.0,0.016,0.001
19/02/2023,08:31:08,0.028,0.0,0.016,0.0
19/02/2023,08:32:08,0.030,0.0,0.017,0.001
19/02/2023,08:33:08,0.035,0.0,0.017,0.0
19/02/2023,08:34:09,0.036,0.0,0.018,0.001
19/02/2023,08:35:08,0.039,0.0,0.018,0.0
19/02/2023,08:36:09,0.040,0.0,0.019,0.001
19/02/2023,08:37:09,0.043,0.0,0.02,0.001
19/02/2023,08:38:08,0.048,0.0,0.021,0.001
19/02/2023,08:39:09,0.052,0.0,0.021,0.0
19/02/2023,08:40:09,0.056,0.0,0.022,0.001
19/02/2023,08:41:09,0.057,0.0,0.023,0.001
19/02/2023,08:42:09,0.060,0.0,0.024,0.001
19/02/2023,08:43:08,0.061,0.0,0.025,0.001
19/02/2023,08:44:09,0.063,0.0,0.026,0.001
19/02/2023,08:45:09,0.064,0.0,0.027,0.001
19/02/2023,08:46:09,0.065,0.0,0.028,0.001
19/02/2023,08:47:09,0.066,0.0,0.029,0.001
19/02/2023,08:48:09,0.068,0.0,0.031,0.002
19/02/2023,08:49:09,0.070,0.0,0.032,0.001
19/02/2023,08:50:09,0.070,0.0,0.033,0.001
19/02/2023,08:51:09,0.073,0.0,0.034,0.001
19/02/2023,08:52:09,0.075,0.0,0.035,0.001
19/02/2023,08:53:08,0.077,0.0,0.037,0.002
19/02/2023,08:54:08,0.081,0.0,0.038,0.001
19/02/2023,08:55:08,0.083,0.0,0.039,0.001
19/02/2023,08:56:09,0.086,0.0,0.041,0.002
19/02/2023,08:57:08,0.090,0.0,0.042,0.001
19/02/2023,08:58:09,0.091,0.0,0.044,0.002
19/02/2023,08:59:08,0.094,0.0,0.045,0.001
19/02/2023,09:00:08,0.094,0.0,0.047,0.002
19/02/2023,09:01:08,0.096,0.0,0.048,0.001
19/02/2023,09:02:09,0.098,0.0,0.05,0.002
19/02/2023,09:03:09,0.099,0.0,0.052,0.002
19/02/2023,09:04:09,0.100,0.0,0.053,0.001
19/02/2023,09:05:09,0.105,0.0,0.055,0.002
19/02/2023,09:06:09,0.106,0.0,0.057,0.002
19/02/2023,09:07:09,0.109,0.0,0.059,0.002
19/02/2023,09:08:09,0.110,0.0,0.06,0.001
19/02/2023,09:09:09,0.115,0.0,0.062,0.002
19/02/2023,09:10:09,0.118,0.0,0.064,0.002
19/02/2023,09:11:09,0.119,0.0,0.066,0.002
19/02/2023,09:12:09,0.122,0.0,0.068,0.002
19/02/2023,09:13:08,0.124,0.0,0.07,0.002
19/02/2023,09:14:09,0.125,0.0,0.072,0.002
19/02/2023,09:15:09,0.126,0.0,0.074,0.002
19/02/2023,09:16:09,0.130,0.0,0.077,0.003
19/02/2023,09:17:10,0.132,0.0,0.079,0.002
19/02/2023,09:18:09,0.135,0.0,0.081,0.002
19/02/2023,09:19:08,0.137,0.0,0.083,0.002
19/02/2023,09:20:08,0.139,0.0,0.086,0.003
19/02/2023,09:21:09,0.141,0.0,0.088,0.002
19/02/2023,09:22:09,0.143,0.0,0.09,0.002
19/02/2023,09:23:09,0.145,0.0,0.093,0.003
19/02/2023,09:24:09,0.148,0.0,0.095,0.002
19/02/2023,09:25:09,0.151,0.0,0.098,0.003
19/02/2023,09:26:09,0.153,0.0,0.1,0.002
19/02/2023,09:27:09,0.154,0.0,0.103,0.003
19/02/2023,09:28:09,0.155,0.0,0.105,0.002
19/02/2023,09:29:09,0.155,0.0,0.108,0.003
19/02/2023,09:30:09,0.156,0.0,0.11,0.002
19/02/2023,09:31:09,0.158,0.0,0.113,0.003
19/02/2023,09:32:09,0.159,0.0,0.116,0.003
19/02/2023,09:33:09,0.162,0.0,0.118,0.002
19/02/2023,09:34:09,0.164,0.0,0.121,0.003
19/02/2023,09:35:09,0.167,0.0,0.124,0.003
19/02/2023,09:36:09,0.171,0.0,0.127,0.003
19/02/2023,09:37:08,0.173,0.0,0.13,0.003
19/02/2023,09:38:09,0.176,0.0,0.132,0.002
19/02/2023,09:39:09,0.179,0.0,0.135,0.003
19/02/2023,09:40:09,0.182,0.0,0.138,0.003
19/02/2023,09:41:09,0.184,0.0,0.142,0.004
19/02/2023,09:42:09,0.186,0.0,0.145,0.003
19/02/2023,09:43:09,0.189,0.0,0.148,0.003
19/02/2023,09:44:09,0.191,0.0,0.151,0.003
19/02/2023,09:45:09,0.193,0.0,0.154,0.003
19/02/2023,09:46:09,0.195,0.0,0.157,0.003
19/02/2023,09:47:09,0.197,0.0,0.161,0.004
19/02/2023,09:48:09,0.200,0.0,0.164,0.003
19/02/2023,09:49:09,0.201,0.0,0.167,0.003
19/02/2023,09:50:11,0.201,0.0,0.171,0.004
19/02/2023,09:51:09,0.205,0.0,0.174,0.003
19/02/2023,09:52:09,0.207,0.0,0.177,0.003
19/02/2023,09:53:09,0.210,0.0,0.181,0.004
19/02/2023,09:54:09,0.210,0.0,0.184,0.003
19/02/2023,09:55:09,0.214,0.0,0.188,0.004
19/02/2023,09:56:09,0.217,1.0,0.191,0.003
19/02/2023,09:57:08,0.219,1.0,0.195,0.004
19/02/2023,09:58:10,0.222,1.0,0.199,0.004
19/02/2023,09:59:09,0.222,1.0,0.203,0.004
19/02/2023,10:00:09,0.227,1.0,0.206,0.003
19/02/2023,10:01:09,0.228,1.0,0.21,0.004
19/02/2023,10:02:09,0.234,1.0,0.214,0.004
19/02/2023,10:03:09,0.236,1.0,0.218,0.004
19/02/2023,10:04:09,0.243,1.0,0.222,0.004
19/02/2023,10:05:08,0.244,1.0,0.226,0.004
19/02/2023,10:06:31,0.249,1.0,0.232,0.006
19/02/2023,10:08:09,0.258,1.0,0.238,0.006
19/02/2023,10:09:09,0.261,1.0,0.243,0.005
19/02/2023,10:10:09,0.264,1.0,0.247,0.004
19/02/2023,10:11:09,0.268,1.0,0.252,0.005
19/02/2023,10:12:08,0.272,1.0,0.256,0.004
19/02/2023,10:13:09,0.275,1.0,0.261,0.005
19/02/2023,10:14:09,0.279,1.0,0.265,0.004
19/02/2023,10:15:09,0.283,1.0,0.27,0.005
19/02/2023,10:16:09,0.284,1.0,0.275,0.005
19/02/2023,10:17:09,0.287,1.0,0.279,0.004
19/02/2023,10:18:09,0.290,1.0,0.284,0.005